Massena, NY

4:19 AM EST on December 12, 2017 (GMT -0500)
Massena International-Richards

Weather History for KMSS - July, 2013

Change the Weather History Date:

Monday, July 1, 2013

  Actual Average Record
Temperature  
Mean Temperature 65 °F 68 °F  
Max Temperature 73 °F 79 °F 93 °F (1963)
Min Temperature 57 °F 57 °F 45 °F (1952)
Degree Days  
Heating Degree Days 0 1  
Month to date heating degree days 1  
Since 1 June heating degree days 97  
Since 1 July heating degree days 1  
Cooling Degree Days 0 4  
Month to date cooling degree days 0 4  
Year to date cooling degree days 100 93  
Since 1 June cooling degree days 77 79  
Growing Degree Days 14 (Base 50)    
Moisture  
Dew Point 56 °F    
Average Humidity 73    
Maximum Humidity 97    
Minimum Humidity 49    
Precipitation  
Precipitation 0.04 in 0.12 in 0.88 in (2017)
Month to date precipitation 0.04 0.12  
Year to date precipitation 15.96 15.57  
Sea Level Pressure  
Sea Level Pressure 30.05 in    
Wind  
Wind Speed 7 mph (NE)    
Max Wind Speed 17 mph    
Max Gust Speed 22 mph    
Visibility 9 miles    
Events Rain    
T = Trace of Precipitation, MM = Missing Value Source: NWS Daily Summary

Daily Weather History Graph

Daily Weather History Graph

Search for Another Location

Airport or City:

Trip Planner

Search our weather history database for the weather conditions in past years. The results will help you decide how hot, cold, wet, or windy it might be!

Date:

Astronomy

Jul. 01, 2013 Rise Set
Actual Time 5:16 AM EDT 8:49 PM EDT
Civil Twilight 4:39 AM EDT 9:26 PM EDT
Nautical Twilight 3:50 AM EDT 10:15 PM EDT
Astronomical Twilight 2:46 AM EDT 11:19 PM EDT
Moon 12:56 AM EDT (7/1) 2:53 PM EDT (7/1)
Length of Visible Light 16h 46m
Length of Day
15h 32m
Waning Crescent, 35% of the Moon is Illuminated
Jul 1
Waning Crescent
Jul 8
New
Jul 15
First Quarter
Jul 22
Full
Jul 29
Last Quarter

Hourly Weather History & Observations

Time (EDT) Temp. Dew Point Humidity Pressure Visibility Wind Dir Wind Speed Gust Speed Precip Events Conditions
12:53 AM 60.1 °F 57.9 °F 93% 29.96 in 10.0 mi Calm Calm - N/A   Clear
1:53 AM 59.0 °F 57.0 °F 93% 29.96 in 10.0 mi Calm Calm - N/A   Clear
2:53 AM 63.0 °F 59.0 °F 87% 29.96 in 10.0 mi NNE 3.5 mph - N/A   Clear
3:53 AM 61.0 °F 59.0 °F 93% 29.97 in 10.0 mi Calm Calm - N/A   Clear
4:53 AM 57.9 °F 55.9 °F 93% 29.99 in 10.0 mi Calm Calm - N/A   Clear
5:53 AM 60.1 °F 57.0 °F 90% 30.01 in 8.0 mi Calm Calm - N/A   Clear
6:53 AM 62.1 °F 59.0 °F 90% 30.02 in 9.0 mi NNE 4.6 mph - N/A   Clear
7:53 AM 64.9 °F 60.1 °F 84% 30.04 in 10.0 mi NNE 6.9 mph - N/A   Clear
8:53 AM 66.0 °F 59.0 °F 78% 30.05 in 9.0 mi NE 10.4 mph - N/A   Clear
9:53 AM 68.0 °F 59.0 °F 73% 30.05 in 7.0 mi NE 10.4 mph - N/A   Clear
10:53 AM 69.1 °F 57.9 °F 68% 30.06 in 7.0 mi NE 13.8 mph - N/A   Scattered Clouds
11:53 AM 71.1 °F 59.0 °F 66% 30.07 in 7.0 mi NE 12.7 mph - N/A   Clear
12:53 PM 72.0 °F 57.9 °F 61% 30.07 in 8.0 mi NE 13.8 mph - N/A   Clear
1:53 PM 71.1 °F 55.0 °F 57% 30.06 in 10.0 mi ENE 10.4 mph - N/A   Clear
2:53 PM 72.0 °F 54.0 °F 53% 30.07 in 10.0 mi NE 15.0 mph 18.4 mph N/A   Clear
3:53 PM 72.0 °F 54.0 °F 53% 30.07 in 10.0 mi NE 9.2 mph - N/A   Clear
4:53 PM 71.1 °F 54.0 °F 55% 30.07 in 10.0 mi NE 9.2 mph - N/A   Clear
5:53 PM 71.1 °F 52.0 °F 51% 30.07 in 10.0 mi ENE 11.5 mph - N/A   Mostly Cloudy
6:53 PM 70.0 °F 52.0 °F 53% 30.08 in 10.0 mi NE 10.4 mph - N/A   Overcast
7:53 PM 70.0 °F 53.1 °F 55% 30.08 in 10.0 mi ENE 6.9 mph - N/A   Overcast
8:53 PM 68.0 °F 55.0 °F 63% 30.09 in 10.0 mi ENE 5.8 mph - 0.00 in Rain Light Rain
9:53 PM 64.0 °F 55.9 °F 75% 30.12 in 10.0 mi East 5.8 mph - 0.01 in Rain Light Rain
10:53 PM 63.0 °F 55.0 °F 75% 30.11 in 10.0 mi East 6.9 mph - 0.01 in   Overcast
11:53 PM 61.0 °F 57.0 °F 87% 30.11 in 7.0 mi ENE 3.5 mph - 0.02 in   Overcast